Regional Weather Roundup
Issued by NWS

Home | Current Version | Previous Version | Graphics & Text | Print | Product List | Glossary On
Versions: 1 2 3 4 5 6 7 8 9 10 11 12 13 14 15 16 17 18 19 20 21 22 23 24 25 26 27 28 29 30 31 32 33 34 35 36 37 38 39 40 41 42 43 44 45 46 47 48 49 50
000
ASUS43 KIND 010959
RWRIN

WEATHER ROUNDUP FOR INDIANA
NATIONAL WEATHER SERVICE INDIANAPOLIS IN
500 AM EST SUN MAR 01 2015

NOTE: "FAIR" INDICATES FEW OR NO CLOUDS BELOW 12,000 FEET WITH NO
SIGNIFICANT WEATHER AND/OR OBSTRUCTIONS TO VISIBILITY.

* - STATION DOES NOT REPORT WEATHER SUCH AS PRECIPITATION OR FOG.

+ - STATION NOT QUALITY CONTROLLED BY THE NATIONAL WEATHER SERVICE.
    USE DATA WITH CAUTION...ESPECIALLY DEWPOINT AND RELATIVE
    HUMIDITY OBSERVATIONS.

INZ001>003-010>013-019-020-011100-
NORTHWEST INDIANA

CITY           SKY/WX    TMP DP  RH WIND       PRES   REMARKS
MONTICELLO +   LGT SNOW  19  17  93 CALM      30.38S
VALPARAISO     NOT AVBL

$$

LMZ046-743>745-011100-
SOUTHERN LAKE MICHIGAN

STATION/POSITION TIME  TEMP WIND        PRES
                       AIR  DIR/SP/G
                 (UTC) (F)  (DEG/KT/KT) (MB)
MICHIGAN CITY    0900   18  120/  3/  3   N/A

$$

INZ004-005-014>016-021>024-011100-
NORTH CENTRAL INDIANA

CITY           SKY/WX    TMP DP  RH WIND       PRES   REMARKS
GOSHEN         CLOUDY    17  12  80 CALM      30.38F
PERU/GRISSOM   LGT SNOW  19  16  86 E3        30.36S FOG
SOUTH BEND     CLOUDY    17  13  84 E3        30.39F

$$

INZ006>009-017-018-025>027-011100-
NORTHEAST INDIANA

CITY           SKY/WX    TMP DP  RH WIND       PRES   REMARKS
ANGOLA *+      MOCLDY    14  10  85 CALM      30.37S
FORT WAYNE     LGT SNOW  17  14  88 NE3       30.39S FOG

$$

INZ028-029-035-036-043>045-051>053-011100-
WEST CENTRAL INDIANA

CITY           SKY/WX    TMP DP  RH WIND       PRES   REMARKS
CRAWFORDSVL +  LGT SNOW  20  16  85 CALM      30.36S
GREENCASTLE +  LGT SNOW  25  21  86 CALM      30.36F
LAFAYETTE      LGT SNOW  20  18  92 E3        30.38F VSB 3/4
TERRE HAUTE    LGT SNOW  25  23  92 NE3       30.37F FOG

$$

INZ030>032-037>040-046>048-054>057-064-065-011100-
CENTRAL INDIANA

CITY           SKY/WX    TMP DP  RH WIND       PRES   REMARKS
INDIANAPOLIS   LGT SNOW  23  21  92 CALM      30.36F VSB 1
-EAGLE CREEK   LGT SNOW  23  22  96 CALM      30.36S FOG
KOKOMO *+      CLOUDY    19  16  86 SE3       30.37S
MT COMFORT *+  CLOUDY    23 N/A N/A CALM      30.38R
SHELBYVILLE    LGT SNOW  26  22  84 CALM      30.37S VSB 1

$$

INZ033-034-041-042-049-050-058-059-011100-
EAST CENTRAL INDIANA

CITY           SKY/WX    TMP DP  RH WIND       PRES   REMARKS
MUNCIE         LGT SNOW  22  19  89 CALM      30.37S VSB 3/4

$$

INZ060-061-067>069-081>083-085>088-011100-
SOUTHWEST INDIANA

CITY           SKY/WX    TMP DP  RH WIND       PRES   REMARKS
EVANSVILLE     MIX PCPN  32  25  75 E3        30.39F
HUNTINGBURG *+ MOCLDY    30  25  80 E5        30.39F WCI  25

$$

INZ062-063-066-070>080-084-089>092-011100-
SOUTH CENTRAL AND SOUTHEAST INDIANA

CITY           SKY/WX    TMP DP  RH WIND       PRES   REMARKS
BLOOMINGTON    LGT SNOW  28  26  92 N3        30.36S VSB 3/4
SEYMOUR +      MIX PCPN  30  28  93 S7        30.39F WCI  23

$$




USA.gov is the U.S. government's official web portal to all federal, state and local government web resources and services.